This is the latest recevied weather packets stored in our database for station/object KM4RT-13. If no packets are shown the sender has not sent any weather packets the latest 10 day(s).
| Time | Temp. | Humidity | Pressure | Rain* | Wind** | Luminosity | Snow |
|---|---|---|---|---|---|---|---|
| 1777677532 | 17.22° C | 42% | 1012.8 hPa | 0 mm | - | 87 W/m² | - |
| 1777677230 | 17.22° C | 45% | 1012.6 hPa | 0 mm | - | 78 W/m² | - |
| 1777676928 | 17.22° C | 43% | 1012.6 hPa | 0 mm | - | 87 W/m² | - |
| 1777676628 | 17.22° C | 44% | 1012.5 hPa | 0 mm | - | 91 W/m² | - |
| 1777676324 | 17.22° C | 44% | 1012.4 hPa | 0 mm | - | 81 W/m² | - |
| 1777676022 | 17.22° C | 41% | 1012.3 hPa | 0 mm | - | 82 W/m² | - |
| 1777675718 | 17.78° C | 43% | 1012.1 hPa | 0 mm | - | 98 W/m² | - |
| 1777675415 | 17.78° C | 43% | 1012.1 hPa | 0 mm | - | 75 W/m² | - |
| 1777675111 | 17.78° C | 40% | 1012 hPa | 0 mm | - | 194 W/m² | - |
| 1777674807 | 18.33° C | 41% | 1012.2 hPa | 0 mm | - | 67 W/m² | - |
| 1777674504 | 18.33° C | 42% | 1011.8 hPa | 0 mm | - | 60 W/m² | - |
| 1777674202 | 18.33° C | 40% | 1012.2 hPa | 0 mm | - | 76 W/m² | - |
| 1777673898 | 18.33° C | 39% | 1011.9 hPa | 0 mm | - | 115 W/m² | - |
| 1777673595 | 17.78° C | 41% | 1012.1 hPa | 0 mm | - | 151 W/m² | - |
| 1777673293 | 17.78° C | 42% | 1012 hPa | 0 mm | - | 153 W/m² | - |
| 1777672990 | 17.78° C | 39% | 1012.2 hPa | 0 mm | - | 139 W/m² | - |
| 1777672687 | 17.78° C | 39% | 1012.1 hPa | 0 mm | - | 145 W/m² | - |
| 1777672382 | 17.78° C | 39% | 1012.1 hPa | 0 mm | - | 115 W/m² | - |
| 1777672077 | 17.78° C | 41% | 1011.9 hPa | 0 mm | - | 128 W/m² | - |
| 1777671773 | 17.78° C | 39% | 1011.9 hPa | 0 mm | - | 167 W/m² | - |
| 1777671470 | 18.33° C | 38% | 1011.9 hPa | 0 mm | - | 337 W/m² | - |
| 1777671166 | 18.33° C | 40% | 1011.8 hPa | 0 mm | - | 384 W/m² | - |
| 1777670862 | 17.78° C | 41% | 1012 hPa | 0 mm | - | 396 W/m² | - |
| 1777670559 | 17.78° C | 40% | 1011.8 hPa | 0 mm | - | 307 W/m² | - |
| 1777670256 | 18.33° C | 43% | 1012 hPa | 0 mm | - | 414 W/m² | - |
* Rain latest hour (hover to see other rain measurements)
** Current wind speed in m/s (hover to see current wind gust speed)